Regional Weather Roundup
Issued by NWS

Home | Current Version | Previous Version | Graphics & Text | Print | Product List | Glossary On
Versions: 1 2 3 4 5 6 7 8 9 10 11 12 13 14 15 16 17 18 19 20 21 22 23 24 25 26 27 28 29 30 31 32 33 34 35 36 37 38 39 40 41 42 43 44 45 46 47 48 49 50
328
ASUS44 KMEG 231610
RWRTN
TENNESSEE HOURLY STATE WEATHER ROUNDUP
NATIONAL WEATHER SERVICE MEMPHIS TN
1000 AM CST THU FEB 23 2017

TNZ002-004-019-021-049-052-054-088>092-231700-
WEST TENNESSEE

CITY           SKY/WX    TMP DP  RH WIND       PRES   REMARKS
MEMPHIS INTL   MOSUNNY   69  58  67 S10       29.81S
NWS MEMPHIS      N/A     70 N/A N/A MISG        N/A
JACKSON        MOSUNNY   68  58  70 S13G18    29.82F
UNION CITY     SUNNY     66  64  94 S7G16     29.79F
PARIS          PTSUNNY   64  55  72 S9        29.82F
HUNTINGDON     PTSUNNY   68  57  68 S12       29.82S
$$

TNZ008-025-027-028-033-062-065-066-231700-
NORTH MIDDLE TENNESSEE

CITY           SKY/WX    TMP DP  RH WIND       PRES   REMARKS
NASHVILLE      PTSUNNY   66  56  70 S8        29.87F
PORTLAND       CLOUDY    61  57  88 S10G16    29.87F
CLARKSVILLE    CLOUDY    63  57  81 S8        29.84F
SMYRNA         PTSUNNY   67  58  72 S9        29.88S
COOKEVILLE     SUNNY     68  57  68 S9        29.88S
GALLATIN       CLOUDY    59  57  94 CALM      29.90F
CROSSVILLE     PTSUNNY   61  53  75 S8        29.92S
$$

TNZ061-075-076-078-094-096-097-231700-
SOUTH MIDDLE TENNESSEE

CITY           SKY/WX    TMP DP  RH WIND       PRES   REMARKS
FAYETTEVILLE   PTSUNNY   66  57  72 S13       29.88S
TULLAHOMA      PTSUNNY   66  55  68 S13       29.89F
WINCHESTER     CLOUDY    64  55  72 S9        29.90R
MCMINNVILLE    SUNNY     70  57  64 S9        29.89S
COLUMBIA       CLOUDY   N/A N/A N/A S9        29.85F
SHELBYVILLE    MOSUNNY   70  57  64 SE9       29.89S
$$

TNZ017-018-042-046-047-231700-
NORTHEAST TENNESSEE

CITY           SKY/WX    TMP DP  RH WIND       PRES   REMARKS
TRI CITIES     PTSUNNY   58  52  80 CALM      29.94F
ELIZABETHTON   DRIZZLE   61  52  72 SE3       29.94F
$$

TNZ012-013-036-069-073-074-231700-
CENTRAL EAST TENNESSEE

CITY           SKY/WX    TMP DP  RH WIND       PRES   REMARKS
KNOXVILLE      FOG       55  54  96 CALM      29.92S VSB 3/4
OAK RIDGE      CLOUDY    54  52  93 CALM      29.94S FOG
GATLINBURG     PTSUNNY   57  54  88 CALM      29.92F
MORRISTOWN     SUNNY     61  57  88 VRB3      29.92F
JACKSBORO      CLOUDY    54  54 100 CALM      29.96S
$$

TNZ083-085-099-231700-
SOUTHEAST TENNESSEE

CITY           SKY/WX    TMP DP  RH WIND       PRES   REMARKS
CHATTANOOGA    PTSUNNY   64  55  72 SW3       29.91F
$$

SKY/WX REPORTED AS FAIR MEANS FEW OR NO CLOUDS BELOW
12 THOUSAND FEET.





USA.gov is the U.S. government's official web portal to all federal, state and local government web resources and services.